308  
ASPQ40 PGUM 180310  
RWRPQ  
WEATHER ROUNDUP FOR THE MARIANAS AND MICRONESIA  
NATIONAL WEATHER SERVICE TIYAN GU  
100 PM CHST TUE FEB 18 2020  
 
GUZ001>004-180400-  
MARIANA ISLANDS-  
 
CITY SKY/WX TMP DP RH WIND PRES REMARKS
 
GUAM AIRPORT MOSUNNY 84 66 54 E16 29.93F  
ANDERSEN AFB NOT AVBL  
ROTA AIRPORT LGT RAIN 79 70 73 NE15 29.91F  
TINIAN AP MOSUNNY 82 70 65 E17 29.92F  
SAIPAN AP MOSUNNY 84 72 65 E18 29.94F  
 

 
 
PMZ161-180400-  
REPUBLIC OF PALAU-  
 
CITY SKY/WX TMP DP RH WIND PRES REMARKS
 
KOROR AP NOT AVBL  
KOROR WSO NOT AVBL  
 

 
 
PMZ171>174-180400-  
FEDERATED STATES OF MICRONESIA-  
 
CITY SKY/WX TMP DP RH WIND PRES REMARKS
 
YAP AIRPORT NOT AVBL  
CHUUK AP MOSUNNY 88 77 70 NE14 29.77F HX 100  
POHNPEI AP NOT AVBL  
POHNPEI WSO NOT AVBL  
KOSRAE AP NOT AVBL  
 

 
 
PMZ181-180400-  
REPUBLIC OF THE MARSHALL ISLANDS-  
 
CITY SKY/WX TMP DP RH WIND PRES REMARKS
 
KWAJALEIN AP NOT AVBL  
MAJURO AP NOT AVBL  
MAJURO WSO NOT AVBL  
 

 
 
 
 
CLICK HERE TO GO TO PREVIOUS BULLETINS.

The Nexlab GU Page Main Text Page